Location: Nitra
(0.0000°N, 18.0833°E)
Time: 19:30:22
(UTC+02:00)

A-11 Canister half - Pass Details

Date: 09 April 2023
Orbit: 1526 x 1682 km, 47.3° (Epoch: 08 June)

Event Time Altitude Azimuth Distance (km) Brightness Sun altitude
Rises 08:51:46 0° 207° (SSW) 4,786 11.3 30.3°
Reaches altitude 10° 08:55:02 10° 201° (SSW) 3,821 10.9 31.1°
Maximum altitude 09:04:17 47° 130° (SE) 2,081 10.7 33.4°
Drops below altitude 10° 09:13:44 10° 59° (ENE) 3,917 12.3 35.7°
Sets 09:17:05 0° 54° (NE) 4,914 12.4 36.6°
